When you browse on this site, cookies collect data to enhance your experience and personalize the content and advertising you see.
Visit our Privacy Policy to learn more. By continuing to use the site, you agree to this use of cookies and data.
  • în România
  • Lista ţărilor
  • Pe 7 zile
  • Temperatura apei
  • Hartă satelitară
  • Meteo pe hartă
  • Widget-uri
  • user-avatar
    Intrare

    Meteo pe oră la Acerenza

    Astăzi, 25 Aprilie, Joi

    Timp Temperatura Precipitaţii Vânt Presiune Umiditate
    00:00 +12°C° 0 mm 2 m/s 702 mmHg 78%
    01:00 +12°C° 0 mm 1 m/s 702 mmHg 75%
    02:00 +12°C° 0 mm 1 m/s 702 mmHg 73%
    03:00 +11°C° 0 mm 1 m/s 701 mmHg 71%
    04:00 +11°C° 0 mm 1 m/s 701 mmHg 70%
    05:00 +12°C° 0 mm 1 m/s 702 mmHg 71%
    06:00 +14°C° 0 mm 2 m/s 702 mmHg 72%
    07:00 +15°C° 0 mm 2 m/s 702 mmHg 73%
    08:00 +17°C° 0 mm 2 m/s 703 mmHg 67%
    09:00 +19°C° 0 mm 2 m/s 704 mmHg 62%
    10:00 +21°C° 0 mm 2 m/s 704 mmHg 56%
    11:00 +21°C° 0 mm 2 m/s 705 mmHg 55%
    12:00 +23°C° 0 mm 2 m/s 705 mmHg 53%
    13:00 +24°C° 0 mm 2 m/s 705 mmHg 52%
    14:00 +23°C° 0 mm 2 m/s 704 mmHg 56%
    15:00 +23°C° 0 mm 2 m/s 704 mmHg 61%
    16:00 +22°C° 0 mm 3 m/s 704 mmHg 65%
    17:00 +19°C° 0 mm 2 m/s 703 mmHg 74%
    18:00 +17°C° 0 mm 2 m/s 703 mmHg 82%
    19:00 +15°C° 0 mm 2 m/s 702 mmHg 90%
    20:00 +14°C° 0 mm 2 m/s 703 mmHg 90%
    21:00 +13°C° 0 mm 2 m/s 703 mmHg 89%
    22:00 +13°C° 0 mm 2 m/s 703 mmHg 89%
    23:00 +13°C° 0 mm 2 m/s 703 mmHg 87%

    Mâine, 26 Aprilie, Vineri

    Timp Temperatura Precipitaţii Vânt Presiune Umiditate
    00:00 +12°C° 0 mm 2 m/s 702 mmHg 86%
    01:00 +12°C° 0 mm 2 m/s 702 mmHg 85%
    02:00 +12°C° 0 mm 2 m/s 702 mmHg 83%
    03:00 +12°C° 0 mm 2 m/s 702 mmHg 81%
    04:00 +12°C° 0 mm 2 m/s 702 mmHg 80%
    05:00 +13°C° 0 mm 2 m/s 702 mmHg 78%
    06:00 +15°C° 0 mm 2 m/s 702 mmHg 76%
    07:00 +16°C° 0 mm 2 m/s 703 mmHg 74%
    08:00 +18°C° 0 mm 2 m/s 703 mmHg 67%
    09:00 +20°C° 0 mm 2 m/s 703 mmHg 61%
    10:00 +23°C° 0 mm 2 m/s 704 mmHg 54%
    11:00 +24°C° 0 mm 2 m/s 704 mmHg 52%
    12:00 +25°C° 0 mm 2 m/s 703 mmHg 50%
    13:00 +26°C° 0 mm 2 m/s 703 mmHg 47%
    14:00 +25°C° 0 mm 3 m/s 703 mmHg 50%
    15:00 +25°C° 0 mm 3 m/s 702 mmHg 53%
    16:00 +24°C° 0 mm 3 m/s 702 mmHg 56%
    17:00 +21°C° 0 mm 3 m/s 701 mmHg 63%
    18:00 +18°C° 0 mm 2 m/s 701 mmHg 70%
    19:00 +16°C° 0 mm 2 m/s 700 mmHg 77%
    20:00 +15°C° 0 mm 2 m/s 700 mmHg 78%
    21:00 +14°C° 0 mm 2 m/s 700 mmHg 79%
    22:00 +13°C° 0 mm 2 m/s 700 mmHg 80%
    23:00 +12°C° 0.2 mm 2 m/s 700 mmHg 82%

    Poimâine, 27 Aprilie, Sâmbătă

    Timp Temperatura Precipitaţii Vânt Presiune Umiditate
    00:00 +12°C° 0.2 mm 2 m/s 700 mmHg 85%
    01:00 +10°C° 0.2 mm 2 m/s 700 mmHg 87%
    02:00 +10°C° 0.2 mm 2 m/s 700 mmHg 89%
    03:00 +9°C° 0.2 mm 2 m/s 700 mmHg 91%
    04:00 +9°C° 0.2 mm 2 m/s 700 mmHg 92%
    05:00 +10°C° 0 mm 2 m/s 700 mmHg 87%
    06:00 +12°C° 0 mm 2 m/s 701 mmHg 82%
    07:00 +11°C° 0 mm 3 m/s 701 mmHg 77%
    08:00 +13°C° 0 mm 3 m/s 702 mmHg 67%
    09:00 +14°C° 0 mm 3 m/s 702 mmHg 57%
    10:00 +15°C° 0 mm 4 m/s 702 mmHg 48%
    11:00 +17°C° 0 mm 4 m/s 702 mmHg 48%
    12:00 +17°C° 0 mm 4 m/s 702 mmHg 49%
    13:00 +18°C° 0 mm 4 m/s 702 mmHg 49%
    14:00 +17°C° 0 mm 4 m/s 702 mmHg 52%
    15:00 +16°C° 0 mm 5 m/s 702 mmHg 55%
    16:00 +15°C° 0 mm 5 m/s 701 mmHg 58%
    17:00 +13°C° 0 mm 4 m/s 701 mmHg 66%
    18:00 +11°C° 0 mm 3 m/s 701 mmHg 74%
    19:00 +9°C° 0 mm 2 m/s 700 mmHg 81%
    20:00 +8°C° 0 mm 2 m/s 701 mmHg 85%
    21:00 +7°C° 0 mm 2 m/s 701 mmHg 88%
    22:00 +6°C° 0 mm 2 m/s 701 mmHg 91%
    23:00 +6°C° 0 mm 2 m/s 701 mmHg 91%

    28 Aprilie, Duminică

    Timp Temperatura Precipitaţii Vânt Presiune Umiditate
    00:00 +6°C° 0 mm 2 m/s 700 mmHg 92%
    01:00 +6°C° 0 mm 2 m/s 700 mmHg 92%
    02:00 +6°C° 0 mm 2 m/s 700 mmHg 93%
    03:00 +5°C° 0 mm 2 m/s 699 mmHg 93%
    04:00 +5°C° 0 mm 2 m/s 699 mmHg 94%
    05:00 +6°C° 0 mm 2 m/s 699 mmHg 90%
    06:00 +8°C° 0 mm 2 m/s 699 mmHg 87%
    07:00 +9°C° 0 mm 2 m/s 700 mmHg 83%
    08:00 +11°C° 0 mm 3 m/s 700 mmHg 76%
    09:00 +12°C° 0 mm 3 m/s 700 mmHg 68%
    10:00 +14°C° 0 mm 3 m/s 700 mmHg 61%
    11:00 +14°C° 0 mm 4 m/s 700 mmHg 61%
    12:00 +15°C° 0 mm 5 m/s 700 mmHg 61%
    13:00 +15°C° 0 mm 6 m/s 700 mmHg 61%
    14:00 +14°C° 0 mm 6 m/s 700 mmHg 61%
    15:00 +13°C° 0 mm 6 m/s 699 mmHg 61%
    16:00 +11°C° 0 mm 6 m/s 699 mmHg 62%
    17:00 +10°C° 0 mm 5 m/s 698 mmHg 67%
    18:00 +8°C° 0 mm 4 m/s 698 mmHg 72%
    19:00 +7°C° 0 mm 2 m/s 697 mmHg 77%
    20:00 +7°C° 0 mm 2 m/s 698 mmHg 79%
    21:00 +5°C° 0 mm 3 m/s 698 mmHg 81%
    22:00 +5°C° 0 mm 3 m/s 698 mmHg 84%
    23:00 +5°C° 0 mm 3 m/s 697 mmHg 86%

    29 Aprilie, Luni

    Timp Temperatura Precipitaţii Vânt Presiune Umiditate
    00:00 +5°C° 0 mm 3 m/s 697 mmHg 88%
    01:00 +4°C° 0 mm 3 m/s 697 mmHg 90%
    02:00 +4°C° 0 mm 3 m/s 697 mmHg 91%
    03:00 +4°C° 0 mm 3 m/s 696 mmHg 92%
    04:00 +4°C° 0 mm 3 m/s 696 mmHg 93%
    05:00 +5°C° 0 mm 4 m/s 696 mmHg 87%
    06:00 +6°C° 0 mm 4 m/s 697 mmHg 81%
    07:00 +8°C° 0 mm 5 m/s 697 mmHg 76%
    08:00 +9°C° 0 mm 5 m/s 697 mmHg 71%
    09:00 +10°C° 0 mm 5 m/s 698 mmHg 65%
    10:00 +11°C° 0 mm 6 m/s 698 mmHg 60%
    11:00 +11°C° 0.2 mm 6 m/s 698 mmHg 61%
    12:00 +13°C° 0.2 mm 6 m/s 698 mmHg 62%
    13:00 +13°C° 0.2 mm 6 m/s 698 mmHg 63%
    14:00 +11°C° 0.3 mm 6 m/s 697 mmHg 66%
    15:00 +11°C° 0.3 mm 6 m/s 697 mmHg 69%
    16:00 +10°C° 0.3 mm 5 m/s 697 mmHg 73%
    17:00 +10°C° 0.3 mm 4 m/s 697 mmHg 79%
    18:00 +9°C° 0.3 mm 3 m/s 697 mmHg 86%
    19:00 +7°C° 0.3 mm 2 m/s 697 mmHg 92%
    20:00 +7°C° 0 mm 2 m/s 697 mmHg 93%
    21:00 +6°C° 0 mm 2 m/s 697 mmHg 93%
    22:00 +6°C° 0 mm 2 m/s 698 mmHg 94%
    23:00 +6°C° 0 mm 2 m/s 697 mmHg 93%

    30 Aprilie, Marţi

    Timp Temperatura Precipitaţii Vânt Presiune Umiditate
    00:00 +5°C° 0 mm 2 m/s 697 mmHg 93%
    01:00 +5°C° 0 mm 2 m/s 697 mmHg 93%
    02:00 +5°C° 0 mm 2 m/s 697 mmHg 92%
    03:00 +6°C° 0 mm 1 m/s 697 mmHg 92%
    04:00 +6°C° 0 mm 1 m/s 697 mmHg 92%
    05:00 +7°C° 0 mm 1 m/s 698 mmHg 88%
    06:00 +9°C° 0 mm 1 m/s 698 mmHg 85%
    07:00 +10°C° 0 mm 1 m/s 699 mmHg 82%
    08:00 +11°C° 0.1 mm 1 m/s 699 mmHg 75%
    09:00 +13°C° 0.1 mm 1 m/s 699 mmHg 69%
    10:00 +15°C° 0.1 mm 2 m/s 700 mmHg 62%
    11:00 +15°C° 0.5 mm 2 m/s 700 mmHg 62%
    12:00 +15°C° 0.5 mm 2 m/s 700 mmHg 62%
    13:00 +16°C° 0.5 mm 2 m/s 699 mmHg 62%
    14:00 +15°C° 1.4 mm 2 m/s 699 mmHg 65%
    15:00 +15°C° 1.4 mm 1 m/s 699 mmHg 67%
    16:00 +15°C° 1.4 mm 1 m/s 699 mmHg 69%
    17:00 +13°C° 0.7 mm 1 m/s 698 mmHg 75%
    18:00 +11°C° 0.7 mm 1 m/s 698 mmHg 80%
    19:00 +10°C° 0.7 mm 1 m/s 698 mmHg 86%
    20:00 +9°C° 0 mm 1 m/s 698 mmHg 87%
    21:00 +8°C° 0 mm 1 m/s 698 mmHg 89%
    22:00 +8°C° 0 mm 1 m/s 698 mmHg 91%
    23:00 +7°C° 0 mm 1 m/s 698 mmHg 91%
    Arată mai mult